EW6519 Weather Reports


time (UTC)temp
F
wind
direction
speed
knots
gust
knots
rain 1hr
in
rain 24hr
in
rain mn
in
humidity
%
barometer
mb
20260509013021 64 248 0.0 0.9 0.00 0.00 0.00 58 1008.6
20260509011513 65 257 0.0 7.8 0.00 0.00 0.00 52 1008.8
20260509010013 66 233 0.0 3.5 0.00 0.00 0.00 53 1008.7
20260509004517 66 247 0.0 6.1 0.00 0.00 0.00 49 1008.6
20260509003011 66 241 0.0 2.6 0.00 0.00 0.00 48 1008.3
20260509001511 66 125 0.0 3.5 0.00 0.00 0.00 47 1008.4
20260509000010 67 243 0.9 7.8 0.00 0.00 0.00 46 1008.4
20260508234510 67 238 1.7 7.8 0.00 0.00 0.00 46 1008.5
20260508233009 67 195 0.9 5.2 0.00 0.00 0.00 47 1008.4
20260508231508 67 219 0.0 7.0 0.00 0.00 0.00 46 1008.5
20260508230008 68 153 0.9 7.0 0.00 0.00 0.00 45 1008.4
20260508224511 68 172 0.0 8.7 0.00 0.00 0.00 45 1008.3
20260508223006 69 141 0.9 10.4 0.00 0.00 0.00 44 1008.2
20260508221508 69 212 2.6 7.8 0.00 0.00 0.00 43 1008.3
20260508220005 69 205 2.6 11.3 0.00 0.00 0.00 42 1008.1
20260508214513 70 64 2.6 10.4 0.00 0.00 0.00 42 1008.3
20260508213002 71 238 4.3 9.6 0.00 0.00 0.00 41 1008.4
20260508211600 71 147 3.5 12.2 0.00 0.00 0.00 41 1008.5
20260508210059 71 214 5.2 10.4 0.00 0.00 0.00 39 1008.7
20260508204600 69 229 1.7 8.7 0.00 0.00 0.00 41 1009.0
20260508203054 70 307 2.6 13.0 0.00 0.00 0.00 41 1009.2
20260508201553 70 257 0.9 12.2 0.00 0.00 0.00 41 1009.4
20260508200108 69 272 2.6 11.3 0.00 0.00 0.00 40 1009.7
20260508194552 70 236 5.2 13.9 0.00 0.00 0.00 38 1009.7
20260508193127 74 198 1.7 7.0 0.00 0.00 0.00 38 1009.8
20260508191547 71 245 3.5 12.2 0.00 0.00 0.00 38 1010.1
20260508190046 72 267 2.6 11.3 0.00 0.00 0.00 37 1010.2
20260508184544 71 234 3.5 10.4 0.00 0.00 0.00 39 1010.3
20260508183054 71 221 1.7 11.3 0.00 0.00 0.00 39 1010.7
20260508181549 70 255 2.6 14.8 0.00 0.00 0.00 37 1011.0
20260508180038 71 264 5.2 14.8 0.00 0.00 0.00 37 1011.2
20260508174536 71 250 5.2 10.4 0.00 0.00 0.00 36 1011.4
20260508173034 71 238 4.3 11.3 0.00 0.00 0.00 38 1011.7
20260508171531 71 261 2.6 11.3 0.00 0.00 0.00 40 1012.0
20260508170028 70 173 2.6 11.3 0.00 0.00 0.00 42 1012.3
20260508164527 69 242 0.0 9.6 0.00 0.00 0.00 45 1012.6
20260508163026 68 262 0.0 11.3 0.00 0.00 0.00 45 1013.0
20260508161521 69 248 2.6 7.8 0.00 0.00 0.00 44 1013.1
20260508160019 68 81 0.9 9.6 0.00 0.00 0.00 45 1013.2
20260508154538 66 258 4.3 12.2 0.00 0.00 0.00 46 1013.5
20260508153015 66 266 3.5 10.4 0.00 0.00 0.00 46 1013.6
20260508151514 64 243 3.5 8.7 0.00 0.00 0.00 49 1013.9
20260508150011 64 266 1.7 9.6 0.00 0.00 0.00 48 1014.0
20260508144508 63 237 5.2 11.3 0.00 0.00 0.00 48 1013.9
20260508143006 61 237 2.6 11.3 0.00 0.00 0.00 50 1014.1
20260508141503 61 238 1.7 9.6 0.00 0.00 0.00 51 1014.1
20260508140021 60 254 2.6 11.3 0.00 0.00 0.00 50 1014.3
20260508134518 59 226 0.9 9.6 0.00 0.00 0.00 52 1014.3
20260508133024 58 248 1.7 7.8 0.00 0.00 0.00 52 1014.4
20260508131513 57 266 1.7 7.0 0.00 0.00 0.00 52 1014.3
20260508130014 57 255 0.9 7.8 0.00 0.00 0.00 53 1014.3
20260508124508 55 171 0.9 9.6 0.00 0.00 0.00 55 1014.3
20260508123002 53 268 0.0 7.8 0.00 0.00 0.00 59 1014.2
20260508121557 51 232 2.6 7.8 0.00 0.00 0.00 61 1014.1
20260508120055 50 221 1.7 8.7 0.00 0.00 0.00 64 1014.2
20260508114554 48 251 0.0 7.0 0.00 0.00 0.00 66 1014.0
20260508113054 48 235 0.0 0.0 0.00 0.00 0.00 67 1013.8
20260508111554 48 240 0.0 0.0 0.00 0.00 0.00 65 1013.9
20260508110051 49 153 0.0 0.0 0.00 0.00 0.00 64 1013.6
20260508104550 49 238 0.0 4.3 0.00 0.00 0.00 63 1013.6
20260508103055 49 210 0.9 5.2 0.00 0.00 0.00 63 1013.6
20260508101549 49 251 0.0 5.2 0.00 0.00 0.00 63 1013.6
20260508100148 49 218 0.9 3.5 0.00 0.00 0.00 63 1013.6
20260508094601 48 236 0.0 0.0 0.00 0.00 0.00 65 1013.6
20260508093047 48 245 0.0 0.0 0.00 0.00 0.00 65 1013.7
20260508091547 48 218 0.0 4.3 0.00 0.00 0.00 65 1013.5
20260508090108 48 198 0.0 4.3 0.00 0.00 0.00 64 1013.6
20260508084547 49 238 0.9 5.2 0.00 0.00 0.00 64 1013.5
20260508083042 48 237 0.0 4.3 0.00 0.00 0.00 64 1013.5
20260508081559 48 240 0.0 6.1 0.00 0.00 0.00 64 1013.5
20260508080041 48 245 0.0 1.7 0.00 0.00 0.00 64 1013.5
20260508074545 48 241 0.0 0.0 0.00 0.00 0.00 64 1013.5
20260508073049 49 235 0.0 1.7 0.00 0.00 0.00 63 1013.4
20260508071537 49 238 0.0 4.3 0.00 0.00 0.00 61 1013.5
20260508070036 49 248 0.9 4.3 0.00 0.00 0.00 61 1013.5
20260508064536 49 248 0.0 0.0 0.00 0.00 0.00 60 1013.9
20260508063036 50 248 0.0 4.3 0.00 0.00 0.00 59 1014.1
20260508061538 50 240 0.9 3.5 0.00 0.00 0.00 58 1014.2
20260508060032 50 251 0.9 4.3 0.00 0.00 0.00 57 1014.4
20260508054535 50 236 1.7 6.1 0.00 0.00 0.00 56 1014.3
20260508053033 50 259 0.0 5.2 0.00 0.00 0.00 56 1014.3
20260508051524 50 238 0.0 4.3 0.00 0.00 0.00 57 1014.2
20260508050023 49 200 0.0 0.0 0.00 0.00 0.00 59 1014.1
20260508044521 49 239 0.0 0.0 0.00 0.00 0.00 60 1014.1
20260508043020 49 224 0.0 2.6 0.00 0.00 0.00 60 1014.2
20260508041521 49 199 0.0 1.7 0.00 0.00 0.00 62 1014.1
20260508040017 49 150 0.0 0.0 0.00 0.00 0.00 62 1014.1
20260508034517 49 150 0.0 0.0 0.00 0.00 0.00 61 1014.1
20260508033015 49 174 0.0 0.0 0.00 0.00 0.00 61 1014.2
20260508031514 49 245 0.0 0.0 0.00 0.00 0.00 61 1014.1
20260508030014 49 256 0.0 0.0 0.00 0.00 0.00 61 1014.2
20260508024532 50 256 0.0 0.0 0.00 0.00 0.00 61 1014.1
20260508023014 49 256 0.0 0.0 0.00 0.00 0.00 61 1014.1
20260508021511 49 256 0.0 0.0 0.00 0.00 0.00 60 1014.0
20260508020011 50 256 0.0 0.0 0.00 0.00 0.00 59 1014.0
20260508014511 50 256 0.0 0.0 0.00 0.00 0.00 57 1014.0